Location: Unspecified
(51.0950°N, 12.9690°E)
Time: 17:24:02
(UTC+00:00)

Cosmos 2369 Rocket - Pass Details

Date: 28 October 2021
Orbit: 829 x 852 km, 71.0° (Epoch: 02 December)

Event Time Altitude Azimuth Distance (km) Brightness Sun altitude
Rises 19:49:30 0° 331° (NNW) 3,385 6.0 -37.4°
Reaches altitude 10° 19:52:02 10° 337° (NNW) 2,449 5.1 -37.8°
Enters shadow 19:53:46 20° 345° (NNW) 1,849 4.3 -38.0°
